Theta_e
342 338 339 335 324 322 315 316 324 321 322 331 331 330 328 333 329 324 346 346 346 346 350 351 351 351 352 351 349 349 350 351 350 350 350 351 354 355 355 355 356 355 354 353 353 352 349 350 354
330 334 334 333 320 312 314 321 319 325 330 334 333 332 330 331 339 340 341 347 348 348 350 349 353 352 351 350 348 350 351 350 350 350 351 354 354 354 353 353 352 352 351 350 350 351 350 348 350
330 332 327 326 321 312 313 321 325 329 332 330 329 335 332 334 338 340 347 349 349 349 349 352 351 352 350 349 349 350 349 349 349 350 351 353 353 353 354 352 350 347 345 343 344 345 348 348 348
324 326 325 320 315 318 320 325 328 327 330 331 330 327 339 343 341 347 350 350 348 347 347 351 351 351 350 348 349 349 348 348 349 351 352 352 352 351 352 350 348 345 344 346 347 347 345 344 347
327 326 320 318 316 320 325 328 329 326 327 327 326 327 333 344 350 351 351 349 343 342 347 351 351 350 349 348 348 348 347 347 348 351 352 352 352 351 350 348 346 345 350 350 350 349 351 348 345
320 323 316 314 315 321 326 331 330 327 328 329 327 330 334 347 348 349 349 344 342 342 344 349 351 350 349 348 348 348 347 346 348 351 352 351 351 350 348 347 346 346 348 349 351 351 350 353 352
319 319 316 315 315 318 325 333 329 327 327 326 331 326 337 342 348 348 346 343 341 342 342 345 346 350 349 348 347 347 347 346 347 349 351 350 349 349 348 346 346 345 345 345 347 350 350 351 350
321 319 313 314 314 315 327 331 332 328 329 334 333 326 331 342 346 345 343 339 339 340 341 342 342 343 342 342 346 346 346 345 345 347 349 350 350 347 347 349 346 344 345 343 344 346 348 348 348
319 315 313 312 313 318 328 328 333 335 331 330 333 332 339 344 343 339 336 335 337 337 340 341 339 341 340 338 342 345 345 344 344 344 344 344 345 345 346 346 344 343 345 340 341 344 344 346 347
315 315 312 314 316 321 326 328 331 329 328 330 332 337 342 341 337 332 331 332 333 335 338 340 341 338 339 337 340 341 343 344 346 346 347 346 348 347 344 348 345 344 343 340 338 337 343 344 341
316 314 314 314 315 320 326 328 332 328 323 328 329 331 335 335 334 331 330 331 331 334 338 340 342 341 339 337 341 340 341 345 348 349 349 349 348 347 348 345 345 346 342 343 341 339 341 340 341
312 316 316 315 317 323 326 330 329 328 326 332 332 333 334 333 331 330 330 331 332 335 337 342 342 342 341 338 340 339 339 343 343 345 349 348 347 349 353 348 347 349 348 344 339 338 341 342 342
313 316 316 315 315 323 330 328 328 328 331 334 332 332 331 332 333 334 333 333 334 334 338 341 345 344 342 342 340 340 339 340 342 345 347 348 349 354 353 352 350 349 349 344 341 340 340 339 340
315 315 315 315 316 319 327 327 329 331 334 331 330 331 331 333 334 336 336 334 335 336 338 340 343 347 344 342 342 341 341 342 344 346 348 350 350 355 351 349 348 346 347 345 344 341 342 342 340
313 310 314 318 319 316 325 323 326 333 334 329 329 330 331 335 337 337 339 339 339 340 342 342 344 346 347 344 343 341 341 341 343 345 350 351 353 354 354 350 347 348 347 346 346 341 342 340 341
310 312 309 317 320 323 325 314 324 334 332 327 328 329 330 334 337 340 341 342 343 342 343 346 341 345 348 346 342 340 341 342 344 346 349 352 354 353 352 348 350 347 347 344 343 340 339 339 341
309 306 309 312 321 322 323 315 324 333 332 329 328 330 331 333 339 341 342 344 345 345 346 348 348 343 348 349 345 344 346 344 345 346 348 351 351 351 352 349 349 352 346 346 341 340 340 341 338
306 306 309 310 317 321 320 317 323 330 330 329 329 330 331 332 336 341 344 345 347 348 349 351 351 351 349 349 349 345 344 343 343 345 347 350 351 352 354 348 352 350 346 343 343 342 341 339 339
308 308 308 311 317 318 317 316 320 326 329 328 329 329 330 332 337 340 343 345 346 348 349 350 352 356 352 347 345 344 343 344 344 345 348 349 351 352 355 349 351 350 346 346 347 344 342 338 340
307 307 308 310 312 318 316 316 319 323 327 328 328 329 331 332 334 337 342 344 346 347 349 350 352 355 356 350 349 348 347 347 347 348 351 352 352 354 353 353 350 351 345 348 347 345 339 339 341
306 306 308 307 309 315 312 311 314 320 323 327 331 332 331 332 332 335 338 343 344 345 347 348 353 356 356 357 352 351 352 351 348 349 350 353 353 353 355 354 353 352 349 344 348 345 344 334 338
303 308 307 306 306 302 310 300 308 312 315 320 323 328 331 331 333 334 336 340 343 345 347 350 353 357 355 356 356 355 347 345 347 349 350 352 355 353 353 354 353 353 348 348 347 345 344 343 335
304 307 307 307 306 307 306 302 307 312 309 315 320 324 328 331 334 333 334 337 341 344 345 349 352 353 354 355 354 350 349 348 350 352 354 355 355 355 352 353 352 354 355 350 350 346 344 341 341
310 307 307 307 306 300 305 304 305 308 310 312 317 322 327 329 333 336 336 339 340 344 344 346 349 351 353 353 353 354 354 352 349 351 352 356 354 357 354 352 354 353 353 351 346 347 345 343 341
308 306 299 297 297 296 306 304 307 312 314 314 315 317 323 329 331 334 336 336 339 342 344 344 347 348 350 349 351 351 353 355 353 353 355 353 353 354 351 354 353 354 351 346 348 347 345 343 342
306 306 300 294 296 299 306 300 305 313 316 317 318 318 322 325 331 333 336 338 338 341 344 344 346 348 348 346 348 351 353 348 349 352 351 352 351 351 352 351 350 347 346 345 347 343 342 343 340
306 303 308 303 304 299 303 307 310 313 315 317 319 322 325 328 328 331 335 337 339 341 344 345 346 348 344 344 346 348 350 351 351 357 354 351 351 352 348 347 343 343 343 343 344 343 339 338 337
308 310 302 303 296 295 301 302 303 309 311 314 317 320 325 329 330 329 335 337 340 342 346 349 348 343 329 330 330 331 345 350 353 351 349 349 347 346 345 344 344 339 339 340 339 335 336 334 330
307 305 306 306 305 298 297 301 312 312 314 316 318 322 328 331 333 334 336 345 345 348 348 348 346 338 330 339 339 339 343 349 348 346 346 346 346 345 343 342 340 336 334 333 334 331 328 326 325
309 308 306 301 301 304 302 302 314 315 316 319 322 324 331 335 337 338 341 342 344 345 346 341 338 330 327 332 335 342 345 346 346 344 343 343 343 343 340 337 333 329 329 329 325 322 320 319 318
Wind_Speed
11 11 6 7 8 5 8 9 4 5 4 3 6 4 10 10 9 7 12 8 15 15 15 15 12 12 12 12 12 12 13 12 12 11 10 9 7 11 14 11 12 12 11 9 8 7 7 6 7
8 6 6 5 7 8 7 6 6 9 7 8 7 2 2 8 9 13 14 14 15 15 13 14 12 12 12 12 12 13 13 12 12 11 11 10 12 12 13 13 13 13 12 10 9 8 8 7 6
9 8 7 5 3 9 10 3 8 10 6 2 4 6 4 6 11 13 17 18 16 13 12 14 13 12 11 12 12 12 12 11 11 11 11 11 12 12 12 12 12 12 11 9 8 7 6 7 6
6 6 6 12 10 9 8 4 10 9 7 2 4 8 8 10 7 8 16 16 15 14 13 15 13 12 11 11 12 12 11 11 11 11 12 12 12 11 11 12 11 11 10 9 7 6 4 5 6
6 5 6 4 9 6 4 5 5 6 5 7 2 8 11 9 9 15 15 14 15 14 15 15 12 11 11 11 11 11 11 11 10 11 12 12 11 11 11 11 10 10 11 11 10 11 10 6 6
7 5 7 7 8 3 4 8 5 5 6 8 8 13 11 9 12 13 15 14 13 14 15 15 13 12 11 11 10 10 10 10 10 10 11 11 10 10 11 10 10 11 11 11 11 11 11 10 11
11 7 4 2 6 6 4 8 5 5 7 7 11 10 10 11 14 14 13 13 13 13 13 14 14 12 10 10 10 10 10 10 10 10 11 10 10 9 9 9 9 9 9 8 8 9 11 11 12
6 6 4 4 2 6 7 8 3 2 7 13 5 6 14 15 15 14 13 13 13 12 12 14 14 14 13 12 10 9 9 10 9 9 10 10 10 9 9 9 8 7 7 8 6 7 8 9 10
4 7 4 2 4 7 8 9 5 7 12 4 5 3 18 19 17 15 14 14 12 10 11 11 13 12 11 12 11 10 9 8 8 9 7 10 6 9 11 11 7 5 6 6 6 4 5 7 9
10 8 3 5 3 2 7 9 9 7 11 9 7 12 19 20 18 17 16 14 15 13 12 11 10 12 9 7 11 10 10 10 8 7 7 5 4 3 6 8 6 5 4 6 4 4 4 10 4
8 6 4 3 5 4 6 10 9 7 8 8 14 19 19 18 17 16 15 15 14 14 11 12 12 9 11 9 8 6 6 5 5 6 6 3 3 4 3 5 8 7 5 4 4 5 3 4 2
9 6 2 4 2 4 9 11 8 7 5 8 17 20 19 18 17 16 15 13 13 14 14 12 13 11 9 7 7 7 6 6 5 6 6 3 5 4 2 1 3 2 2 2 4 5 4 4 2
12 8 4 3 5 5 9 10 8 9 5 12 19 19 18 16 16 14 13 13 13 14 14 14 12 11 10 8 7 6 6 6 6 6 7 4 3 1 2 1 1 1 1 3 3 3 2 4 4
11 9 6 5 8 6 11 11 8 10 10 15 19 19 18 17 16 14 13 14 14 13 14 14 15 12 11 10 8 6 6 6 6 6 5 6 5 2 4 4 3 3 1 3 1 2 1 1 2
6 11 8 7 6 7 12 12 13 13 14 16 18 18 17 17 17 16 15 14 15 13 14 14 14 13 12 10 8 7 7 7 7 6 6 7 7 5 4 3 5 4 2 3 3 3 2 3 3
12 12 12 8 7 3 16 17 17 15 16 16 18 17 17 19 18 17 15 14 13 12 14 13 12 14 13 10 9 7 6 7 6 5 6 8 8 5 6 5 1 3 3 4 3 3 3 3 2
13 13 17 8 9 4 14 7 19 16 15 14 17 17 18 18 19 17 17 16 15 14 13 14 14 14 13 12 9 9 7 7 6 6 7 7 8 6 6 5 3 4 3 2 4 4 4 2 4
15 18 9 11 13 11 16 11 5 14 16 14 17 18 18 19 21 19 18 18 16 15 14 13 13 13 13 10 9 8 8 8 8 7 7 7 6 7 7 6 4 5 4 4 4 4 4 5 3
13 10 15 11 7 12 15 16 11 10 13 14 16 17 18 19 19 19 19 18 17 16 15 16 15 15 12 11 11 10 10 9 8 8 10 9 8 7 7 7 6 6 5 5 5 6 6 6 3
9 13 13 8 5 13 14 14 13 13 13 15 15 18 19 19 19 20 19 18 18 17 18 17 18 16 14 11 9 9 8 8 7 7 7 10 10 10 9 8 7 8 6 7 7 6 5 4 3
12 13 12 13 9 9 5 13 13 14 12 14 17 17 18 20 21 20 21 19 18 18 18 18 19 17 16 14 9 7 6 6 7 7 8 9 10 10 10 9 8 6 8 6 6 7 7 5 5
13 12 10 9 11 13 17 13 16 16 17 15 19 19 21 22 22 21 22 21 20 19 18 18 17 17 16 16 11 12 9 9 8 7 6 5 9 10 10 10 9 8 7 4 5 5 5 6 5
12 4 14 13 13 16 12 11 13 11 12 18 18 18 21 23 25 24 25 24 21 19 17 16 17 17 16 16 14 11 12 8 6 6 6 8 8 10 10 10 10 8 6 4 4 4 5 5 7
6 8 8 8 13 16 18 16 14 12 16 17 19 19 19 20 24 26 24 22 19 19 18 16 16 15 16 15 16 13 10 9 5 6 6 4 6 6 8 9 8 8 7 6 6 7 8 6 5
9 9 9 12 14 15 18 21 11 19 9 16 17 22 14 15 19 23 26 24 23 21 19 17 18 16 16 15 14 13 11 9 9 8 5 5 5 5 8 8 8 6 5 4 6 6 5 6 5
16 13 11 10 12 14 13 11 14 14 14 15 16 13 14 11 14 19 24 23 22 20 19 19 16 14 12 9 9 9 8 6 6 8 6 5 4 5 5 6 5 5 6 5 5 5 4 3 2
9 11 9 13 11 10 8 10 6 12 12 13 12 11 8 9 11 15 17 19 21 19 18 14 13 15 14 10 6 6 3 5 4 5 2 3 5 4 5 6 5 5 5 3 5 3 3 2 3
11 5 8 10 13 16 10 10 9 5 10 11 10 10 1 6 6 8 9 12 13 15 12 11 17 19 14 8 10 9 14 5 5 5 5 6 4 5 6 6 5 3 4 4 3 4 2 3 4
8 12 9 7 8 10 11 8 1 5 11 13 14 11 7 5 6 5 5 9 8 10 12 14 14 15 15 16 15 11 12 5 5 6 8 6 7 6 5 7 7 5 5 3 1 2 2 2 3
7 11 4 8 10 9 9 12 13 8 15 13 14 9 5 2 7 8 9 9 12 12 13 14 15 12 11 14 14 12 6 8 7 6 7 7 8 8 9 9 7 5 3 2 1 2 4 4 4
Wind_Direction
177 193 229 237 226 236 90 80 19 74 110 64 77 330 48 21 4 41 145 135 139 130 131 144 140 140 136 131 124 119 114 111 106 102 99 97 90 90 78 90 88 84 81 83 93 95 105 97 86
186 197 227 270 250 99 77 52 12 53 91 109 108 115 42 80 63 119 145 154 143 130 142 137 143 141 136 129 123 121 118 117 117 114 112 100 90 90 92 85 82 80 78 75 74 79 100 110 101
214 237 263 266 291 59 82 54 82 104 122 143 108 34 27 62 116 142 118 145 136 137 141 123 146 141 135 129 125 123 122 120 114 110 105 97 92 90 85 84 81 79 71 62 62 67 82 105 101
216 202 223 247 91 90 54 82 117 123 93 78 99 87 92 91 119 116 145 143 140 146 148 131 144 140 137 133 133 131 123 116 110 110 110 102 98 94 89 85 79 72 68 62 57 57 74 97 101
221 248 228 182 103 105 101 124 150 82 107 108 152 112 107 91 98 126 149 151 151 149 129 143 147 143 143 141 139 132 125 117 113 111 111 108 108 106 99 92 82 76 67 69 64 64 68 86 129
220 272 227 164 108 92 140 167 151 77 111 117 121 132 98 110 122 152 150 155 152 147 144 136 146 149 151 149 144 137 129 120 116 113 111 111 112 112 104 96 87 80 74 69 69 67 66 70 91
272 240 56 42 111 174 127 167 192 99 127 95 137 143 112 149 145 158 157 151 155 151 149 152 155 151 159 158 155 148 134 126 121 124 119 119 118 111 105 100 94 83 73 70 68 79 86 82 86
278 274 204 206 174 109 143 174 101 193 78 122 155 164 160 139 152 152 158 159 160 161 162 158 153 165 172 163 163 151 147 144 139 132 129 134 128 125 139 137 98 91 70 58 69 78 89 98 102
261 238 199 120 237 105 149 165 129 100 138 142 140 265 133 146 153 159 164 167 165 172 167 166 165 162 179 156 148 164 164 157 154 153 151 187 150 155 159 81 121 108 88 76 71 74 96 127 107
238 252 92 22 6 248 171 196 142 170 150 131 123 107 131 151 164 169 173 174 172 175 176 175 170 172 171 163 157 178 164 175 186 178 173 202 120 77 43 112 148 127 119 125 129 131 178 225 142
200 250 104 95 6 270 184 174 151 182 185 147 149 145 152 162 172 178 180 182 177 173 182 186 168 188 178 178 174 178 174 172 180 190 205 155 173 173 194 156 169 149 192 191 182 153 174 54 33
233 235 221 50 14 222 182 148 178 198 53 117 148 155 161 171 176 184 181 184 177 179 183 192 175 186 212 185 194 178 189 185 194 190 201 209 217 178 271 323 55 157 73 5 19 68 63 114 101
239 196 228 266 275 248 174 173 156 177 106 142 150 160 169 179 179 182 177 185 190 184 183 189 191 193 194 214 192 198 197 193 199 187 194 222 233 250 245 134 303 348 308 109 88 70 76 144 161
203 248 241 270 270 223 206 174 187 145 151 147 161 170 176 183 182 179 186 183 193 186 184 192 196 190 198 211 212 196 203 182 207 203 195 209 244 188 225 199 194 145 205 195 126 95 43 300 243
237 230 223 226 256 227 214 173 213 144 170 158 171 176 181 191 187 193 191 192 191 190 180 196 197 189 200 208 211 216 195 206 206 210 205 219 223 200 285 315 234 158 182 198 198 210 201 258 265
221 234 219 140 184 169 208 191 185 164 175 173 177 181 187 193 201 199 199 201 192 203 189 192 197 188 196 202 207 219 206 214 217 216 215 222 230 233 249 242 267 111 209 223 216 224 233 263 237
209 217 220 148 193 172 211 242 140 172 189 181 183 190 198 198 206 207 206 204 208 203 199 195 199 201 195 204 210 218 207 221 219 218 224 217 236 229 235 230 215 210 222 237 240 223 268 218 258
207 225 205 217 180 215 199 237 147 178 198 197 190 197 203 206 208 208 212 210 205 207 209 204 201 209 196 204 211 213 211 217 223 227 232 225 234 227 216 224 234 232 216 211 233 270 227 288 287
300 240 216 206 160 210 220 225 190 186 211 214 197 200 209 214 207 207 209 212 212 207 204 210 205 201 198 202 205 211 214 212 219 228 226 229 232 221 208 243 207 230 232 237 208 218 210 231 224
246 237 230 130 203 218 210 235 239 225 215 229 218 209 209 209 212 202 207 208 209 209 208 209 212 204 203 203 214 222 226 226 226 221 212 217 216 218 212 239 225 219 215 218 211 220 238 234 208
227 239 224 245 176 220 242 232 244 243 256 244 242 233 220 215 205 208 209 207 206 207 205 210 209 206 204 212 200 204 235 239 214 214 212 213 218 215 216 219 245 228 252 198 209 217 225 240 169
237 218 252 232 216 219 200 245 207 226 244 241 241 232 230 218 215 203 205 206 207 208 206 208 206 203 200 200 202 207 217 227 221 228 214 223 219 221 220 225 219 220 236 258 205 217 256 255 251
252 209 231 232 237 259 201 247 262 189 226 244 242 235 227 220 216 210 206 204 206 203 202 202 200 200 199 195 210 202 223 227 228 233 228 223 227 239 229 207 215 220 233 237 247 230 236 226 271
134 194 196 222 241 235 243 233 245 212 218 244 242 231 230 221 218 218 212 210 206 199 199 197 195 199 195 191 195 205 209 233 243 230 235 230 233 232 234 228 220 221 228 235 225 207 221 233 256
219 216 217 211 217 243 240 241 249 270 235 251 258 265 222 224 220 218 216 212 211 206 197 193 194 189 188 187 186 189 206 218 226 240 237 236 238 233 228 225 226 226 229 243 249 213 228 223 238
203 223 257 249 247 245 196 243 253 261 267 274 275 273 287 265 237 228 224 223 215 208 200 200 187 182 170 177 192 183 191 214 229 237 237 237 238 229 201 197 201 204 217 226 211 207 223 194 194
187 230 271 280 264 271 252 196 256 246 245 251 255 257 249 283 275 244 228 228 225 209 203 194 164 134 126 106 72 331 252 216 227 265 207 200 211 174 197 183 198 210 207 198 190 174 188 130 204
259 16 227 224 263 257 252 244 273 229 270 278 296 271 334 329 312 251 222 227 215 224 158 141 145 117 121 99 59 359 291 242 224 142 186 197 176 196 196 185 168 145 177 178 202 206 147 308 316
177 221 232 303 304 288 274 261 30 284 299 312 299 321 358 346 31 55 115 81 109 114 133 147 143 134 88 114 125 209 243 228 152 177 173 172 174 180 181 150 161 167 145 140 89 13 332 331 349
290 307 302 264 237 238 295 289 300 287 290 301 307 316 22 23 111 119 125 144 144 153 149 146 129 128 143 145 163 190 175 178 163 146 154 171 175 154 147 148 154 144 128 99 30 359 22 358 337